Location: Caicarita
(10.0502°N, 67.6875°W)
Time: 01:39:43
(UTC+00:00)

Helios 1B rocket - Pass Details

Date: 05 August 2024
Orbit: 526 x 537 km, 98.2° (Epoch: 09 September)

Event Time Altitude Azimuth Distance (km) Brightness Sun altitude
Rises 23:43:45 0° 187° (S) 2,673 5.7 -12.8°
Reaches altitude 10° 23:46:02 10° 198° (SSW) 1,786 4.9 -13.4°
Maximum altitude 23:49:25 29° 259° (W) 995 4.3 -14.2°
Drops below altitude 10° 23:52:45 10° 320° (NW) 1,770 5.8 -14.9°
Sets 23:55:08 0° 332° (NNW) 2,690 6.6 -15.5°
